Time,TemperatureF,DewpointF,PressureIn,WindDirection,WindDirectionDegrees,WindSpeedMPH,WindSpeedGustMPH,Humidity,HourlyPrecipIn,Conditions,Clouds,dailyrainin,SoftwareType,DateUTC
2013-07-02 00:01:00,79.0,41.0,-100.00,NW,319,11.0,14.0,26,0.00,,,-99.99,,2013-07-02 00:01:00,
2013-07-02 00:12:00,79.0,40.0,-100.00,NNW,329,7.0,12.0,25,0.00,,,-99.99,,2013-07-02 00:12:00,
2013-07-02 00:43:00,78.0,42.0,-100.00,NNW,328,7.0,12.0,28,0.00,,,-99.99,,2013-07-02 00:43:00,
2013-07-02 01:01:00,77.0,41.0,-100.00,NW,312,10.0,14.0,28,0.00,,,-99.99,,2013-07-02 01:01:00,
2013-07-02 01:11:00,77.0,41.0,-100.00,NW,318,9.0,11.0,28,0.00,,,-99.99,,2013-07-02 01:11:00,
2013-07-02 01:43:00,76.0,41.0,-100.00,NW,319,7.0,12.0,28,0.00,,,-99.99,,2013-07-02 01:43:00,
2013-07-02 02:02:00,76.0,40.0,-100.00,WNW,298,3.0,10.0,27,0.00,,,-99.99,,2013-07-02 02:02:00,
2013-07-02 02:11:00,76.0,40.0,-100.00,NW,316,7.0,11.0,28,0.00,,,-99.99,,2013-07-02 02:11:00,
2013-07-02 02:43:00,74.0,40.0,-100.00,NW,318,4.0,6.0,29,0.00,,,-99.99,,2013-07-02 02:43:00,
2013-07-02 03:01:00,74.0,41.0,-100.00,NW,318,5.0,7.0,30,0.00,,,-99.99,,2013-07-02 03:01:00,
2013-07-02 03:43:00,72.0,41.0,-100.00,NW,323,4.0,7.0,32,0.00,,,-99.99,,2013-07-02 03:43:00,
2013-07-02 04:11:00,73.0,41.0,-100.00,NNE,25,1.0,2.0,32,0.00,,,-99.99,,2013-07-02 04:11:00,
2013-07-02 04:32:00,73.0,39.0,-100.00,North,356,3.0,4.0,29,0.00,,,-99.99,,2013-07-02 04:32:00,
2013-07-02 04:42:00,73.0,39.0,-100.00,North,359,4.0,8.0,30,0.00,,,-99.99,,2013-07-02 04:42:00,
2013-07-02 05:01:00,71.0,39.0,-100.00,SE,145,0.0,2.0,31,0.00,,,-99.99,,2013-07-02 05:01:00,
2013-07-02 05:11:00,71.0,40.0,-100.00,SE,144,0.0,0.0,32,0.00,,,-99.99,,2013-07-02 05:11:00,
2013-07-02 05:22:00,71.0,40.0,-100.00,SW,220,3.0,4.0,32,0.00,,,-99.99,,2013-07-02 05:22:00,
2013-07-02 05:32:00,70.0,40.0,-100.00,SSW,193,3.0,4.0,34,0.00,,,-99.99,,2013-07-02 05:32:00,
2013-07-02 05:43:00,70.0,41.0,-100.00,SSW,206,2.0,3.0,35,0.00,,,-99.99,,2013-07-02 05:43:00,
2013-07-02 06:01:00,69.0,41.0,-100.00,SSW,195,4.0,4.0,36,0.00,,,-99.99,,2013-07-02 06:01:00,
2013-07-02 06:11:00,69.0,41.0,-100.00,SSW,206,2.0,3.0,36,0.00,,,-99.99,,2013-07-02 06:11:00,
2013-07-02 06:43:00,68.0,41.0,-100.00,SSW,203,5.0,7.0,38,0.00,,,-99.99,,2013-07-02 06:43:00,
2013-07-02 07:44:00,65.0,41.0,-100.00,ESE,109,0.0,1.0,42,0.00,,,-99.99,,2013-07-02 07:44:00,
2013-07-02 08:12:00,64.0,41.0,-100.00,SSW,193,0.0,0.0,44,0.00,,,-99.99,,2013-07-02 08:12:00,
2013-07-02 08:44:00,63.0,41.0,-100.00,ESE,119,0.0,0.0,44,0.00,,,-99.99,,2013-07-02 08:44:00,
2013-07-02 09:01:00,63.0,42.0,-100.00,SE,143,0.0,0.0,46,0.00,,,-99.99,,2013-07-02 09:01:00,
2013-07-02 09:43:00,63.0,41.0,-100.00,ESE,109,0.0,0.0,45,0.00,,,-99.99,,2013-07-02 09:43:00,
2013-07-02 09:52:00,62.0,41.0,-100.00,South,186,0.0,0.0,46,0.00,,,-99.99,,2013-07-02 09:52:00,
2013-07-02 10:11:00,62.0,41.0,-100.00,SW,216,2.0,3.0,46,0.00,,,-99.99,,2013-07-02 10:11:00,
2013-07-02 10:33:00,63.0,41.0,-100.00,SW,215,2.0,5.0,44,0.00,,,-99.99,,2013-07-02 10:33:00,
2013-07-02 10:43:00,63.0,41.0,-100.00,SSW,195,4.0,6.0,44,0.00,,,-99.99,,2013-07-02 10:43:00,
2013-07-02 11:42:00,62.0,41.0,-100.00,ESE,110,2.0,3.0,47,0.00,,,-99.99,,2013-07-02 11:42:00,
2013-07-02 12:11:00,62.0,41.0,-100.00,SSE,147,0.0,0.0,47,0.00,,,-99.99,,2013-07-02 12:11:00,
2013-07-02 12:43:00,61.0,42.0,-100.00,SSW,193,0.0,1.0,49,0.00,,,-99.99,,2013-07-02 12:43:00,
2013-07-02 13:01:00,62.0,42.0,-100.00,ESE,103,0.0,0.0,48,0.00,,,-99.99,,2013-07-02 13:01:00,
2013-07-02 13:43:00,67.0,41.0,-100.00,NNE,13,2.0,4.0,39,0.00,,,-99.99,,2013-07-02 13:43:00,
2013-07-02 14:43:00,67.0,43.0,-100.00,North,354,4.0,5.0,42,0.00,,,-99.99,,2013-07-02 14:43:00,
2013-07-02 15:02:00,67.0,43.0,-100.00,North,1,4.0,8.0,42,0.00,,,-99.99,,2013-07-02 15:02:00,
2013-07-02 15:11:00,67.0,45.0,-100.00,NNW,339,4.0,6.0,45,0.00,,,-99.99,,2013-07-02 15:11:00,
2013-07-02 15:33:00,68.0,44.0,-100.00,North,357,4.0,6.0,43,0.00,,,-99.99,,2013-07-02 15:33:00,
2013-07-02 15:44:00,69.0,44.0,-100.00,North,353,4.0,6.0,41,0.00,,,-99.99,,2013-07-02 15:44:00,
2013-07-02 16:12:00,71.0,44.0,-100.00,NNW,328,6.0,9.0,38,0.00,,,-99.99,,2013-07-02 16:12:00,
2013-07-02 16:43:00,70.0,43.0,-100.00,NE,48,6.0,10.0,37,0.00,,,-99.99,,2013-07-02 16:43:00,
2013-07-02 18:43:00,76.0,43.0,-100.00,NNW,332,2.0,5.0,31,0.00,,,-99.99,,2013-07-02 18:43:00,
2013-07-02 19:43:00,77.0,39.0,-100.00,NW,320,12.0,19.0,25,0.00,,,-99.99,,2013-07-02 19:43:00,
2013-07-02 20:02:00,77.0,37.0,-100.00,NW,306,11.0,13.0,24,0.00,,,-99.99,,2013-07-02 20:02:00,
2013-07-02 20:43:00,79.0,39.0,-100.00,WNW,292,9.0,14.0,24,0.00,,,-99.99,,2013-07-02 20:43:00,
2013-07-02 21:43:00,79.0,39.0,-100.00,NW,316,9.0,15.0,23,0.00,,,-99.99,,2013-07-02 21:43:00,
2013-07-02 22:11:00,80.0,36.0,-100.00,NNW,342,11.0,17.0,21,0.00,,,-99.99,,2013-07-02 22:11:00,
2013-07-02 22:43:00,80.0,34.0,-100.00,NW,325,18.0,24.0,19,0.00,,,-99.99,,2013-07-02 22:43:00,
2013-07-02 23:01:00,80.0,34.0,-100.00,NW,325,15.0,23.0,19,0.00,,,-99.99,,2013-07-02 23:01:00,
2013-07-02 23:33:00,80.0,36.0,-100.00,NW,325,7.0,12.0,20,0.00,,,-99.99,,2013-07-02 23:33:00,
2013-07-02 23:44:00,81.0,36.0,-100.00,NW,325,12.0,24.0,19,0.00,,,-99.99,,2013-07-02 23:44:00,